Flag for Luxembourg Weather past 2 weeks in Ettelbruck, Luxembourg

Now
60 °F

Partly sunny.


Feels Like: 60 °F
Forecast: 44 / 58 °F
Wind: 7 mph from West

Location: Luxembourg / Luxembourg

Current Time: Oct 20, 2014 at 1:43:04 PM

Latest Report: Oct 20, 2014 at 1:00 PM


Visibility: 13 mi

Pressure: 30.10 "Hg

Humidity: 72%

Dew point: 51 °F

Location of EttelbruckLocation

Historic Weather in Ettelbruck — Graph

°F

Ettelbruck temperature yesterday

Maximum temperature yesterday: 70 °F (at 3:00 PM)
Minimum temperature yesterday: 54 °F (at 8:00 AM)
Average temperature yesterday: 60 °F

Past Weeks' High & Low Weather Summary

 TemperatureHumidityPressure
High70 °F (Oct 19, 3:00 PM)100% (Oct 6, 8:00 AM)30.16 "Hg (Oct 6, 8:00 AM)
Low45 °F (Oct 12, 9:00 AM)64% (Oct 14, 5:00 PM)29.59 "Hg (Oct 7, 8:00 AM)
Average56 °F91%29.88 "Hg
* Reported Oct 5 12:00 Noon — Oct 20 12:00 Noon, Ettelbruck, Weather by CustomWeather, © 2014

Note: Actual official high and low records may vary slightly from our data, if they occured in-between our weather recording intervals... More about our weather records

Advertising

Ettelbruck weather history for previous 24 hours

 ConditionsComfort  
Time TempWeatherWind HumidityBarometerVisibility
12:00 PM
Oct 20
60 °FPartly sunny.5 mph77%30.10 "Hg12 mi
11:00 AM58 °FOvercast.6 mph82%30.11 "Hg11 mi
10:00 AM58 °FPartly sunny.5 mph87%30.11 "Hg11 mi
9:00 AM58 °FScattered clouds.3 mph89%30.09 "Hg10 mi
7:00 AM58 °FOvercast.3 mph90%30.10 "Hg11 mi
5:00 AM57 °FPassing clouds.1 mph93%30.11 "Hg11 mi
4:00 AM60 °FCool.5 mph84%30.11 "Hg6 mi
3:00 AM61 °FCool.5 mph87%30.11 "Hg6 mi
2:00 AM62 °FOvercast.5 mph92%30.11 "Hg6 mi
1:00 AM62 °FOvercast.5 mph91%30.11 "Hg7 mi
12:00 AM63 °FLight rain. Overcast.5 mph86%30.11 "Hg7 mi
11:00 PM
Oct 19
63 °FOvercast.5 mph86%30.10 "Hg19 mi
10:00 PM62 °FOvercast.5 mph90%30.09 "Hg19 mi
9:00 PM62 °FClear.5 mph89%30.09 "Hg19 mi
8:00 PM62 °FPassing clouds.5 mph87%30.09 "Hg16 mi
7:00 PM64 °FPassing clouds.5 mph81%30.06 "Hg16 mi
6:00 PM67 °FScattered clouds.6 mph73%30.06 "Hg16 mi
5:00 PM69 °FPassing clouds.7 mph67%30.05 "Hg16 mi
4:00 PM70 °FPassing clouds.6 mph66%30.06 "Hg16 mi
3:00 PM70 °FPassing clouds.6 mph68%30.06 "Hg16 mi
2:00 PM68 °FPassing clouds.5 mph75%30.08 "Hg16 mi
1:00 PM64 °FPassing clouds.5 mph86%30.11 "Hg14 mi
Weather by CustomWeather, © 2014

See weather overviewHow to use our weather pages